Location: Key Biscayne
(25.6930°N, 80.1630°W)
Time: 15:19:43
(UTC-04:00)

CZ-2D R/B - Visible Passes

Search period start: 20 June 2018 00:00
Search period end: 30 June 2018 00:00
Orbit: 523 x 540 km, 97.5° (Epoch: 20 June)

Date Brightness Start Highest point End Pass type
(mag) Time Alt. Az. Time Alt. Az. Time Alt. Az.
20 Jun 3.8 21:00:51 10° S 21:04:40 59° W 21:08:30 10° NNW visible
21 Jun 3.3 20:50:48 10° S 20:54:41 84° W 20:58:34 10° NNW visible
22 Jun 3.3 20:40:51 10° SSE 20:44:42 68° ENE 20:48:33 10° N visible
25 Jun 6.1 21:47:07 10° SW 21:49:07 14° W 21:51:06 10° WNW visible
26 Jun 5.8 21:36:19 10° SW 21:39:04 19° W 21:41:50 10° NW visible
27 Jun 5.4 21:25:49 10° SSW 21:29:02 25° W 21:32:17 10° NW visible
28 Jun 4.8 21:15:29 10° SSW 21:19:01 35° W 21:22:35 10° NNW visible
29 Jun 4.2 21:05:16 10° S 21:09:01 49° W 21:12:46 10° NNW visible
